Weather History for KWJF - January, 2012

Change the Weather History Date:

Thursday, January 19, 2012

  Actual Average Record
Temperature  
Mean Temperature 48 °F 45 °F  
Max Temperature 73 °F 59 °F 73 °F (1986)
Min Temperature 22 °F 31 °F 13 °F (2007)
Degree Days  
Heating Degree Days 17    
Month to date heating degree days 393  
Since 1 July heating degree days 1744  
Cooling Degree Days 0    
Month to date cooling degree days 0  
Year to date cooling degree days 0  
Moisture  
Dew Point -7 °F    
Average Humidity 18    
Maximum Humidity 32    
Minimum Humidity 3    
Precipitation  
Precipitation 0.00 in 0.04 in 1.56 in (1954)
Month to date precipitation 0.00 0.92  
Year to date precipitation 0.00 0.92  
Since 1 July precipitation 1.35 3.39  
Snow  
Snow 0.00 in - 0.00 in ()
Month to date snowfall 0.0  
Since 1 July snowfall 0.0  
Snow Depth 0.00 in    
Sea Level Pressure  
Sea Level Pressure 30.10 in    
Wind  
Wind Speed 12 mph (West)    
Max Wind Speed 31 mph    
Max Gust Speed 38 mph    
Visibility 10 miles    
Events      
T = Trace of Precipitation, MM = Missing Value Source: NWS Daily Summary

Daily Weather History Graph

Daily Weather History Graph

Search for Another Location

Airport or City:

Trip Planner

Search our weather history database for the weather conditions in past years. The results will help you decide how hot, cold, wet, or windy it might be!

Date:

Astronomy

Jan. 19, 2012 Rise Set
Actual Time 6:58 AM PST 5:08 PM PST
Civil Twilight 6:31 AM PST 5:35 PM PST
Nautical Twilight 6:00 AM PST 6:06 PM PST
Astronomical Twilight 5:30 AM PST 6:36 PM PST
Moon 3:37 AM PST (1/19) 1:48 PM PST (1/19)
Length of Visible Light 11h 04m
Length of Day
10h 09m
Waning Crescent, 15% of the Moon is Illuminated
Jan 19
Waning Crescent
Jan 22
New
Jan 30
First Quarter
Feb 7
Full
Feb 14
Last Quarter

Hourly Weather History & Observations

Time (PST) Temp. Windchill Dew Point Humidity Pressure Visibility Wind Dir Wind Speed Gust Speed Precip Events Conditions
12:56 AM 42.1 °F - -16.1 °F 8% 30.17 in 10.0 mi Calm Calm - N/A   Clear
1:56 AM 36.0 °F 32.1 °F -7.1 °F 16% 30.16 in 10.0 mi West 4.6 mph - N/A   Clear
2:56 AM 35.1 °F 32.2 °F -5.1 °F 18% 30.16 in 10.0 mi NNE 3.5 mph - N/A   Clear
3:56 AM 30.9 °F 27.5 °F -0.9 °F 26% 30.18 in 10.0 mi ESE 3.5 mph - N/A   Clear
4:56 AM 25.0 °F - -2.9 °F 30% 30.18 in 10.0 mi Calm Calm - N/A   Clear
5:56 AM 26.1 °F - -2.9 °F 28% 30.18 in 10.0 mi Calm Calm - N/A   Clear
6:56 AM 25.0 °F - -2.9 °F 30% 30.19 in 10.0 mi Calm Calm - N/A   Clear
7:56 AM 28.9 °F - -0.9 °F 28% 30.18 in 10.0 mi Calm Calm - N/A   Clear
8:56 AM 39.9 °F - 1.9 °F 20% 30.18 in 10.0 mi Calm Calm - N/A   Clear
9:56 AM 48.9 °F - 1.9 °F 15% 30.16 in 10.0 mi Calm Calm - N/A   Clear
10:56 AM 57.9 °F - 1.9 °F 10% 30.12 in 10.0 mi East 4.6 mph - N/A   Clear
11:44 AM 71.6 °F - -9.4 °F 4% 30.07 in 10.0 mi West 20.7 mph 26.5 mph N/A   Clear
11:56 AM 72.0 °F - -9.0 °F 4% 30.05 in 10.0 mi WNW 19.6 mph - N/A   Clear
12:56 PM 72.0 °F - -11.0 °F 4% 30.02 in 10.0 mi West 25.3 mph 33.4 mph N/A   Clear
1:56 PM 70.0 °F - -14.1 °F 4% 30.02 in 10.0 mi West 26.5 mph 34.5 mph N/A   Clear
2:56 PM 68.0 °F - -13.0 °F 4% 30.02 in 10.0 mi West 28.8 mph 35.7 mph N/A   Clear
3:56 PM 64.9 °F - -9.9 °F 5% 30.03 in 10.0 mi West 26.5 mph 32.2 mph N/A   Clear
4:56 PM 61.0 °F - -11.9 °F 5% 30.04 in 10.0 mi West 20.7 mph - N/A   Clear
5:56 PM 57.9 °F - -11.9 °F 5% 30.06 in 10.0 mi West 20.7 mph - N/A   Clear
6:56 PM 55.9 °F - -11.9 °F 6% 30.08 in 10.0 mi West 20.7 mph - N/A   Clear
7:56 PM 54.0 °F - -9.0 °F 7% 30.07 in 10.0 mi West 18.4 mph - N/A   Clear
8:56 PM 53.1 °F - -9.0 °F 8% 30.06 in 10.0 mi West 18.4 mph - N/A   Clear
9:56 PM 48.0 °F - -5.1 °F 11% 30.06 in 10.0 mi WSW 13.8 mph - N/A   Clear
10:56 PM 50.0 °F - -0.9 °F 12% 30.04 in 10.0 mi West 16.1 mph - N/A   Clear
11:56 PM 53.1 °F - -4.0 °F 10% 30.01 in 10.0 mi West 17.3 mph - N/A   Clear